Torna al catalogo

BREEZE-M R/B

AttivoHEO
NORAD 38343·ROCKET BODY·🇷🇺 Russia

Lanciato May 17, 2012 da Baikonur Cosmodrome

Loading…

Prossimi Passaggi (prossime 24 ore)

TLE

AggiornatoSource: Space-Track

Epoca: Sep 14, 2026, 03:27 UTC

1 38343U 12026B   26257.14382555 -.00000123  00000-0  00000-0 0  9994
2 38343  10.1282 129.0304 4130005  60.2460 334.6296  1.76702809 92146

Traccia BREEZE-M R/B in tempo reale con AllMySat

Download on the App Store